This is the latest recevied weather packets stored in our database for station/object KC0SIQ-13. If no packets are shown the sender has not sent any weather packets the latest 1 day(s).
| Time | Temp. | Humidity | Pressure | Rain* | Wind** | Luminosity | Snow |
|---|---|---|---|---|---|---|---|
| 1778022116 | 0.56° C | 99% | 1011.8 hPa | 0 mm | 0 m/s | 21 W/m² | - |
| 1778021812 | 0.56° C | 99% | 1011.8 hPa | 0 mm | 0 m/s | 22 W/m² | - |
| 1778021509 | 0.56° C | 99% | 1011.9 hPa | 0 mm | 0 m/s | 26 W/m² | - |
| 1778021205 | 0.56° C | 99% | 1011.8 hPa | 0 mm | 0 m/s | 29 W/m² | - |
| 1778020903 | 0.56° C | 99% | 1011.9 hPa | 0 mm | 0 m/s | 24 W/m² | - |
| 1778020601 | 0.56° C | 99% | 1011.8 hPa | 0 mm | 0 m/s | 23 W/m² | - |
| 1778020296 | 0.56° C | 99% | 1011.9 hPa | 0 mm | 0 m/s | 24 W/m² | - |
| 1778019992 | 0.56° C | 99% | 1011.7 hPa | 1.27 mm | 0 m/s | 26 W/m² | - |
| 1778019689 | 0.56° C | 99% | 1011.7 hPa | 1.27 mm | 0 m/s | 34 W/m² | - |
| 1778019386 | 0.56° C | 99% | 1011.8 hPa | 0 mm | 0 m/s | 41 W/m² | - |
| 1778019082 | 0.56° C | 99% | 1011.4 hPa | 0 mm | 0 m/s | 50 W/m² | - |
| 1778018780 | 0.56° C | 99% | 1011.6 hPa | 0 mm | 0 m/s | 39 W/m² | - |
| 1778018478 | 1.11° C | 99% | 1011.8 hPa | 1.78 mm | 0 m/s | 45 W/m² | - |
| 1778018175 | 0.56° C | 99% | 1011.6 hPa | 1.78 mm | 0 m/s | 57 W/m² | - |
| 1778017873 | 0.56° C | 99% | 1011.9 hPa | 1.27 mm | 0 m/s | 55 W/m² | - |
| 1778017571 | 1.11° C | 99% | 1011.7 hPa | 1.27 mm | 0 m/s | 62 W/m² | - |
| 1778017268 | 0.56° C | 99% | 1011.8 hPa | 1.78 mm | 0 m/s | 68 W/m² | - |
| 1778016965 | 1.11° C | 99% | 1011.7 hPa | 3.05 mm | 0 m/s | 81 W/m² | - |
| 1778016662 | 1.11° C | 99% | 1011.8 hPa | 3.05 mm | 0 m/s | 108 W/m² | - |
| 1778016358 | 1.11° C | 99% | 1011.4 hPa | 3.56 mm | 0 m/s | 124 W/m² | - |
| 1778016065 | 1.11° C | 99% | 1011.6 hPa | 3.05 mm | 0 m/s | 119 W/m² | - |
| 1778015752 | 1.11° C | 99% | 1011.8 hPa | 3.05 mm | 0 m/s | 127 W/m² | - |
| 1778015449 | 0.56° C | 99% | 1011.7 hPa | 3.05 mm | 0 m/s | 118 W/m² | - |
| 1778015146 | 0.56° C | 99% | 1011.8 hPa | 1.27 mm | 0 m/s | 95 W/m² | - |
| 1778014843 | 0.56° C | 99% | 1011.7 hPa | 0 mm | 0 m/s | 95 W/m² | - |
* Rain latest hour (hover to see other rain measurements)
** Current wind speed in m/s (hover to see current wind gust speed)